Location: 5810 Zion Rd, Cleves, OH 45002, USA
(39.1922°N, 84.7113°W)
Time: 09:04:59
(UTC-05:00)

Tiros 1 despin weight - All Passes

Search period start: 13 December 2019 00:00
Search period end: 23 December 2019 00:00
Orbit: 594 x 642 km, 48.2° (Epoch: 12 December)

Date Brightness Start Highest point End Pass type
(mag) Time Alt. Az. Time Alt. Az. Time Alt. Az.
13 Dec - 03:45:45 10° SW 03:50:09 46° SE 03:54:29 10° ENE visible
13 Dec - 05:27:24 10° W 05:31:45 43° NNW 05:36:03 10° NE visible
13 Dec - 07:10:19 10° WNW 07:14:05 25° N 07:17:50 10° NE visible
13 Dec - 08:52:21 10° NW 08:56:30 36° NNE 09:00:36 10° E daylight
13 Dec - 10:33:52 10° WNW 10:38:15 63° SW 10:42:36 10° SE daylight
13 Dec - 12:18:55 10° SW 12:19:05 10° SW 12:19:16 10° SW daylight
14 Dec - 02:22:42 10° S 02:25:34 16° SE 02:28:24 10° E night (unlit)
14 Dec - 04:02:03 10° SW 04:06:38 87° SSE 04:11:10 10° ENE visible
14 Dec - 05:44:29 10° WNW 05:48:34 32° NNW 05:52:36 10° NE visible
14 Dec - 07:27:13 10° NW 07:31:02 26° N 07:34:49 10° ENE daylight
14 Dec - 09:08:53 10° NW 09:13:16 54° NNE 09:17:36 10° ESE daylight
14 Dec - 10:50:43 10° WNW 10:54:40 32° SW 10:58:34 10° SSE daylight
15 Dec - 02:37:45 10° SSW 02:41:50 32° SE 02:45:54 10° ENE night (unlit)
15 Dec - 04:18:44 10° WSW 04:23:15 56° NNW 04:27:42 10° NE visible
15 Dec - 06:01:36 10° WNW 06:05:28 27° N 06:09:17 10° NE visible
15 Dec - 07:43:56 10° NW 07:47:57 31° NNE 07:51:55 10° ENE daylight
15 Dec - 09:25:25 10° WNW 09:29:53 89° SW 09:34:19 10° ESE daylight
15 Dec - 11:08:13 10° W 11:10:56 16° SW 11:13:37 10° S daylight
16 Dec - 01:16:31 10° SE 01:17:22 10° SE 01:18:13 10° ESE night (unlit)
16 Dec - 02:53:42 10° SW 02:58:14 61° SE 03:02:44 10° ENE night (unlit)
16 Dec - 04:35:44 10° W 04:40:00 38° NNW 04:44:14 10° NE visible
16 Dec - 06:18:37 10° NW 06:22:25 25° N 06:26:10 10° ENE visible
16 Dec - 08:00:30 10° NW 08:04:46 42° NNE 08:09:00 10° E daylight
16 Dec - 09:42:06 10° WNW 09:46:23 47° SW 09:50:36 10° SE daylight
17 Dec - 01:30:02 10° S 01:33:34 22° SE 01:37:06 10° E night (unlit)
17 Dec - 03:10:10 10° WSW 03:14:47 75° NNW 03:19:21 10° NE night (unlit)
17 Dec - 04:52:51 10° WNW 04:56:51 29° NNW 05:00:49 10° NE visible
17 Dec - 06:35:26 10° NW 06:39:21 28° N 06:43:13 10° ENE visible
17 Dec - 08:17:01 10° NW 08:21:28 67° NNE 08:25:53 10° ESE daylight
17 Dec - 09:59:08 10° W 10:02:43 24° SW 10:06:16 10° S daylight
18 Dec - 01:45:32 10° SSW 01:49:54 42° SE 01:54:14 10° ENE night (unlit)
18 Dec - 03:27:01 10° W 03:31:28 47° NNW 03:35:51 10° NE night (unlit)
18 Dec - 05:09:57 10° WNW 05:13:47 26° N 05:17:35 10° NE visible
18 Dec - 06:52:05 10° NW 06:56:14 35° NNE 07:00:20 10° E visible
18 Dec - 08:33:35 10° WNW 08:38:03 70° SW 08:42:27 10° SE daylight
18 Dec - 10:17:24 10° WSW 10:18:55 12° SW 10:20:27 10° SSW daylight
19 Dec - 00:22:46 10° SSE 00:25:21 15° SE 00:27:54 10° E night (unlit)
19 Dec - 02:01:43 10° SW 02:06:22 80° SE 02:10:57 10° ENE night (unlit)
19 Dec - 03:44:05 10° W 03:48:16 33° NNW 03:52:24 10° NE visible
19 Dec - 05:26:53 10° NW 05:30:44 26° N 05:34:32 10° ENE visible
19 Dec - 07:08:37 10° NW 07:13:01 50° NNE 07:17:20 10° E visible
19 Dec - 08:50:23 10° WNW 08:54:28 35° SW 08:58:30 10° SSE daylight
20 Dec - 00:37:35 10° SSW 00:41:36 29° SE 00:45:34 10° ENE night (unlit)
20 Dec - 02:18:22 10° WSW 02:22:58 61° NNW 02:27:30 10° NE night (unlit)
20 Dec - 04:01:12 10° WNW 04:05:09 27° N 04:09:04 10° NE visible
20 Dec - 05:43:37 10° NW 05:47:39 30° NNE 05:51:38 10° ENE visible
20 Dec - 07:25:08 10° WNW 07:29:40 84° NNE 07:34:07 10° ESE visible
20 Dec - 09:07:43 10° W 09:10:45 18° SW 09:13:45 10° S daylight
21 Dec - 00:53:25 10° SW 00:57:59 56° SE 01:02:29 10° ENE night (unlit)
21 Dec - 02:35:19 10° W 02:39:42 40° NNW 02:44:01 10° NE night (unlit)
21 Dec - 04:18:15 10° WNW 04:22:06 26° N 04:25:54 10° ENE visible
21 Dec - 06:00:12 10° NW 06:04:30 40° NNE 06:08:44 10° E visible
21 Dec - 07:41:48 10° WNW 07:46:10 53° SW 07:50:28 10° SE daylight
21 Dec - 23:29:57 10° S 23:33:20 20° SE 23:36:42 10° E night (unlit)
22 Dec - 01:09:50 10° WSW 01:14:30 82° NNW 01:19:07 10° ENE night (unlit)
22 Dec - 02:52:26 10° WNW 02:56:32 30° NNW 03:00:36 10° NE night (unlit)
22 Dec - 04:35:05 10° NW 04:39:02 28° N 04:42:56 10° ENE visible
22 Dec - 06:16:44 10° NW 06:21:14 62° NNE 06:25:39 10° ESE visible
22 Dec - 07:58:45 10° WNW 08:02:32 27° SW 08:06:15 10° SSE daylight
22 Dec - 23:45:19 10° SSW 23:49:38 38° SE 23:53:56 10° ENE night (unlit)
